Time,TemperatureF,DewpointF,PressureIn,WindDirection,WindDirectionDegrees,WindSpeedMPH,WindSpeedGustMPH,Humidity,HourlyPrecipIn,Conditions,Clouds,dailyrainin,SoftwareType,DateUTC
2013-01-10 00:01:00,50.5,49.0,30.39,SE,130,1.0,2.0,96,0.00,,,0.10,weatherlink.com 1.10,2013-01-10 05:01:00,
2013-01-10 00:16:00,50.6,50.0,30.39,SE,128,0.0,3.0,96,0.00,,,0.10,weatherlink.com 1.10,2013-01-10 05:16:00,
2013-01-10 00:48:00,50.6,50.0,30.39,SE,126,0.0,2.0,96,0.01,,,0.11,weatherlink.com 1.10,2013-01-10 05:48:00,
2013-01-10 01:02:00,50.5,49.0,30.39,SE,128,0.0,3.0,96,0.01,,,0.11,weatherlink.com 1.10,2013-01-10 06:02:00,
2013-01-10 01:17:00,50.6,50.0,30.39,SE,128,0.0,1.0,96,0.01,,,0.11,weatherlink.com 1.10,2013-01-10 06:17:00,
2013-01-10 01:32:00,50.6,49.0,30.40,SE,128,0.0,2.0,95,0.01,,,0.11,weatherlink.com 1.10,2013-01-10 06:32:00,
2013-01-10 01:47:00,50.7,49.0,30.39,SE,138,0.0,3.0,95,0.00,,,0.11,weatherlink.com 1.10,2013-01-10 06:47:00,
2013-01-10 02:02:00,51.0,49.0,30.39,SE,139,0.0,2.0,94,0.00,,,0.11,weatherlink.com 1.10,2013-01-10 07:02:00,
2013-01-10 02:17:00,51.2,50.0,30.39,SE,128,1.0,4.0,94,0.00,,,0.11,weatherlink.com 1.10,2013-01-10 07:17:00,
2013-01-10 02:32:00,51.4,50.0,30.39,SE,133,1.0,4.0,94,0.00,,,0.11,weatherlink.com 1.10,2013-01-10 07:32:00,
2013-01-10 02:47:00,51.5,50.0,30.39,ENE,72,1.0,4.0,94,0.00,,,0.11,weatherlink.com 1.10,2013-01-10 07:47:00,
2013-01-10 03:02:00,51.4,50.0,30.39,SE,140,0.0,3.0,94,0.00,,,0.11,weatherlink.com 1.10,2013-01-10 08:02:00,
2013-01-10 03:17:00,51.3,49.0,30.39,SSE,150,0.0,4.0,93,0.00,,,0.11,weatherlink.com 1.10,2013-01-10 08:17:00,
2013-01-10 03:32:00,51.3,49.0,30.39,SE,124,4.0,4.0,93,0.00,,,0.11,weatherlink.com 1.10,2013-01-10 08:32:00,
2013-01-10 03:47:00,51.1,50.0,30.39,ESE,112,0.0,2.0,94,0.00,,,0.11,weatherlink.com 1.10,2013-01-10 08:47:00,
2013-01-10 04:02:00,50.9,49.0,30.39,SSE,152,0.0,2.0,94,0.00,,,0.11,weatherlink.com 1.10,2013-01-10 09:02:00,
2013-01-10 04:17:00,51.0,49.0,30.38,SE,136,0.0,3.0,94,0.00,,,0.11,weatherlink.com 1.10,2013-01-10 09:17:00,
2013-01-10 04:32:00,50.9,49.0,30.36,SE,141,3.0,4.0,94,0.00,,,0.11,weatherlink.com 1.10,2013-01-10 09:32:00,
2013-01-10 04:48:00,50.9,49.0,30.36,SE,138,0.0,2.0,94,0.00,,,0.00,weatherlink.com 1.10,2013-01-10 09:48:00,
2013-01-10 05:02:00,51.0,49.0,30.36,SE,132,0.0,2.0,94,0.00,,,0.00,weatherlink.com 1.10,2013-01-10 10:02:00,
2013-01-10 05:17:00,51.2,50.0,30.36,SSE,153,0.0,2.0,94,0.00,,,0.00,weatherlink.com 1.10,2013-01-10 10:17:00,
2013-01-10 05:33:00,51.4,50.0,30.36,SE,140,1.0,5.0,93,0.00,,,0.00,weatherlink.com 1.10,2013-01-10 10:33:00,
2013-01-10 05:47:00,51.5,50.0,30.35,ESE,123,0.0,5.0,94,0.00,,,0.00,weatherlink.com 1.10,2013-01-10 10:47:00,
2013-01-10 06:02:00,51.5,50.0,30.36,SSE,150,2.0,2.0,94,0.00,,,0.00,weatherlink.com 1.10,2013-01-10 11:02:00,
2013-01-10 06:17:00,51.6,50.0,30.35,ESE,114,0.0,4.0,93,0.00,,,0.00,weatherlink.com 1.10,2013-01-10 11:17:00,
2013-01-10 06:32:00,51.8,50.0,30.35,SE,141,0.0,3.0,93,0.00,,,0.00,weatherlink.com 1.10,2013-01-10 11:32:00,
2013-01-10 07:02:00,51.9,50.0,30.36,SSE,163,0.0,3.0,93,0.00,,,0.00,weatherlink.com 1.10,2013-01-10 12:02:00,
2013-01-10 07:17:00,51.9,50.0,30.36,SSE,160,0.0,2.0,93,0.01,,,0.01,weatherlink.com 1.10,2013-01-10 12:17:00,
2013-01-10 07:32:00,51.6,50.0,30.35,SSE,160,0.0,1.0,94,0.02,,,0.02,weatherlink.com 1.10,2013-01-10 12:32:00,
2013-01-10 07:47:00,51.5,50.0,30.35,ESE,118,0.0,4.0,95,0.03,,,0.03,weatherlink.com 1.10,2013-01-10 12:47:00,
2013-01-10 08:02:00,51.6,50.0,30.36,SE,129,0.0,2.0,95,0.03,,,0.03,weatherlink.com 1.10,2013-01-10 13:02:00,
2013-01-10 08:17:00,51.6,50.0,30.35,SE,128,0.0,4.0,95,0.02,,,0.03,weatherlink.com 1.10,2013-01-10 13:17:00,
2013-01-10 08:32:00,51.6,50.0,30.35,SSE,161,0.0,2.0,95,0.01,,,0.03,weatherlink.com 1.10,2013-01-10 13:32:00,
2013-01-10 08:47:00,51.7,50.0,30.36,SSE,155,0.0,2.0,95,0.00,,,0.03,weatherlink.com 1.10,2013-01-10 13:47:00,
2013-01-10 09:02:00,52.0,51.0,30.36,ESE,117,2.0,3.0,95,0.00,,,0.03,weatherlink.com 1.10,2013-01-10 14:02:00,
2013-01-10 09:17:00,52.2,51.0,30.36,ESE,118,0.0,2.0,95,0.00,,,0.03,weatherlink.com 1.10,2013-01-10 14:17:00,
2013-01-10 09:32:00,52.4,51.0,30.37,SSE,148,1.0,2.0,95,0.00,,,0.03,weatherlink.com 1.10,2013-01-10 14:32:00,
2013-01-10 09:47:00,52.6,51.0,30.36,SE,126,0.0,4.0,95,0.00,,,0.03,weatherlink.com 1.10,2013-01-10 14:47:00,
2013-01-10 10:02:00,52.7,51.0,30.37,ESE,123,0.0,2.0,94,0.00,,,0.03,weatherlink.com 1.10,2013-01-10 15:02:00,
2013-01-10 10:17:00,53.0,51.0,30.38,SE,126,1.0,2.0,94,0.00,,,0.03,weatherlink.com 1.10,2013-01-10 15:17:00,
2013-01-10 10:32:00,53.4,52.0,30.37,SE,129,0.0,3.0,94,0.00,,,0.03,weatherlink.com 1.10,2013-01-10 15:32:00,
2013-01-10 10:47:00,53.6,52.0,30.37,SE,128,1.0,2.0,94,0.00,,,0.03,weatherlink.com 1.10,2013-01-10 15:47:00,
2013-01-10 11:02:00,53.5,52.0,30.37,NW,310,0.0,3.0,93,0.00,,,0.03,weatherlink.com 1.10,2013-01-10 16:02:00,
2013-01-10 11:17:00,53.7,52.0,30.36,SE,144,0.0,3.0,93,0.00,,,0.03,weatherlink.com 1.10,2013-01-10 16:17:00,
2013-01-10 11:32:00,53.9,52.0,30.36,SE,133,1.0,2.0,93,0.00,,,0.03,weatherlink.com 1.10,2013-01-10 16:32:00,
2013-01-10 11:47:00,54.2,52.0,30.35,WNW,293,0.0,4.0,92,0.00,,,0.03,weatherlink.com 1.10,2013-01-10 16:47:00,
2013-01-10 12:02:00,54.4,52.0,30.33,ESE,120,1.0,4.0,91,0.00,,,0.03,weatherlink.com 1.10,2013-01-10 17:02:00,
2013-01-10 12:17:00,54.6,52.0,30.32,ESE,119,0.0,4.0,91,0.00,,,0.03,weatherlink.com 1.10,2013-01-10 17:17:00,
2013-01-10 12:32:00,54.9,53.0,30.32,SE,128,1.0,3.0,92,0.00,,,0.03,weatherlink.com 1.10,2013-01-10 17:32:00,
2013-01-10 12:47:00,55.0,53.0,30.31,SE,136,0.0,3.0,91,0.00,,,0.03,weatherlink.com 1.10,2013-01-10 17:47:00,
2013-01-10 13:02:00,55.0,53.0,30.30,ESE,120,0.0,2.0,91,0.00,,,0.03,weatherlink.com 1.10,2013-01-10 18:02:00,
2013-01-10 13:17:00,55.2,52.0,30.30,NE,36,0.0,2.0,90,0.00,,,0.03,weatherlink.com 1.10,2013-01-10 18:17:00,
2013-01-10 13:32:00,55.5,53.0,30.29,East,101,0.0,2.0,91,0.00,,,0.03,weatherlink.com 1.10,2013-01-10 18:32:00,
2013-01-10 13:47:00,56.2,53.0,30.29,ESE,118,2.0,4.0,88,0.00,,,0.03,weatherlink.com 1.10,2013-01-10 18:47:00,
2013-01-10 14:02:00,56.3,53.0,30.29,SE,125,0.0,2.0,89,0.00,,,0.03,weatherlink.com 1.10,2013-01-10 19:02:00,
2013-01-10 14:33:00,56.8,54.0,30.27,SE,124,0.0,3.0,89,0.00,,,0.03,weatherlink.com 1.10,2013-01-10 19:33:00,
2013-01-10 14:48:00,57.1,53.0,30.27,ESE,123,2.0,3.0,87,0.00,,,0.03,weatherlink.com 1.10,2013-01-10 19:48:00,
2013-01-10 15:18:00,57.7,54.0,30.27,SE,132,0.0,1.0,87,0.00,,,0.03,weatherlink.com 1.10,2013-01-10 20:18:00,
2013-01-10 15:33:00,58.1,54.0,30.26,SE,132,1.0,2.0,86,0.00,,,0.03,weatherlink.com 1.10,2013-01-10 20:33:00,
2013-01-10 15:48:00,58.1,54.0,30.26,SE,132,0.0,2.0,86,0.00,,,0.03,weatherlink.com 1.10,2013-01-10 20:48:00,
2013-01-10 16:03:00,58.2,54.0,30.26,SE,130,0.0,3.0,86,0.00,,,0.03,weatherlink.com 1.10,2013-01-10 21:03:00,
2013-01-10 16:18:00,58.2,54.0,30.25,SE,130,0.0,1.0,87,0.00,,,0.03,weatherlink.com 1.10,2013-01-10 21:18:00,
2013-01-10 16:33:00,58.1,54.0,30.24,SE,131,0.0,2.0,87,0.00,,,0.03,weatherlink.com 1.10,2013-01-10 21:33:00,
2013-01-10 16:48:00,57.9,54.0,30.24,SE,130,0.0,2.0,86,0.00,,,0.03,weatherlink.com 1.10,2013-01-10 21:48:00,
2013-01-10 17:03:00,57.6,54.0,30.24,SE,130,0.0,0.0,87,0.00,,,0.03,weatherlink.com 1.10,2013-01-10 22:03:00,
2013-01-10 17:18:00,57.4,54.0,30.24,SE,130,0.0,0.0,88,0.00,,,0.03,weatherlink.com 1.10,2013-01-10 22:18:00,
2013-01-10 17:33:00,57.3,54.0,30.23,SE,130,0.0,0.0,89,0.00,,,0.03,weatherlink.com 1.10,2013-01-10 22:33:00,
2013-01-10 17:48:00,57.0,54.0,30.24,SE,130,0.0,0.0,90,0.00,,,0.03,weatherlink.com 1.10,2013-01-10 22:48:00,
2013-01-10 18:03:00,56.6,54.0,30.24,SE,130,0.0,0.0,90,0.00,,,0.03,weatherlink.com 1.10,2013-01-10 23:03:00,
2013-01-10 18:18:00,56.2,54.0,30.24,SE,130,0.0,1.0,91,0.00,,,0.03,weatherlink.com 1.10,2013-01-10 23:18:00,
2013-01-10 18:33:00,56.1,54.0,30.23,SE,130,0.0,0.0,91,0.00,,,0.03,weatherlink.com 1.10,2013-01-10 23:33:00,
2013-01-10 18:48:00,55.9,54.0,30.23,SE,130,0.0,0.0,92,0.00,,,0.03,weatherlink.com 1.10,2013-01-10 23:48:00,
2013-01-10 19:03:00,55.7,54.0,30.21,SE,130,0.0,1.0,92,0.00,,,0.03,weatherlink.com 1.10,2013-01-11 00:03:00,
2013-01-10 19:18:00,55.6,53.0,30.20,SE,130,0.0,1.0,92,0.00,,,0.03,weatherlink.com 1.10,2013-01-11 00:18:00,
2013-01-10 19:33:00,55.5,53.0,30.20,SE,130,0.0,0.0,92,0.00,,,0.03,weatherlink.com 1.10,2013-01-11 00:33:00,
2013-01-10 19:48:00,55.3,53.0,30.20,SE,129,0.0,0.0,92,0.00,,,0.03,weatherlink.com 1.10,2013-01-11 00:48:00,
2013-01-10 20:03:00,55.2,53.0,30.20,SE,129,0.0,0.0,93,0.00,,,0.03,weatherlink.com 1.10,2013-01-11 01:03:00,
2013-01-10 20:18:00,55.1,53.0,30.19,SE,129,0.0,0.0,93,0.00,,,0.03,weatherlink.com 1.10,2013-01-11 01:18:00,
2013-01-10 20:33:00,54.9,53.0,30.18,SE,130,0.0,0.0,93,0.00,,,0.03,weatherlink.com 1.10,2013-01-11 01:33:00,
2013-01-10 20:48:00,54.5,53.0,30.18,SE,129,0.0,1.0,94,0.00,,,0.03,weatherlink.com 1.10,2013-01-11 01:48:00,
2013-01-10 21:03:00,54.2,53.0,30.19,SE,130,0.0,1.0,94,0.00,,,0.03,weatherlink.com 1.10,2013-01-11 02:03:00,
2013-01-10 21:33:00,54.1,53.0,30.17,SE,130,0.0,0.0,94,0.00,,,0.03,weatherlink.com 1.10,2013-01-11 02:33:00,
2013-01-10 21:48:00,54.1,53.0,30.16,SE,130,0.0,1.0,95,0.00,,,0.03,weatherlink.com 1.10,2013-01-11 02:48:00,
2013-01-10 22:03:00,54.2,53.0,30.16,SE,130,0.0,0.0,95,0.00,,,0.03,weatherlink.com 1.10,2013-01-11 03:03:00,
2013-01-10 22:18:00,54.4,53.0,30.14,SE,130,0.0,0.0,95,0.00,,,0.03,weatherlink.com 1.10,2013-01-11 03:18:00,
2013-01-10 22:33:00,55.0,54.0,30.13,SE,130,0.0,1.0,95,0.00,,,0.03,weatherlink.com 1.10,2013-01-11 03:33:00,
2013-01-10 22:48:00,59.0,57.0,30.13,SE,126,2.0,7.0,92,0.00,,,0.03,weatherlink.com 1.10,2013-01-11 03:48:00,
2013-01-10 23:03:00,62.2,57.0,30.11,SE,140,1.0,9.0,83,0.00,,,0.03,weatherlink.com 1.10,2013-01-11 04:03:00,
2013-01-10 23:33:00,63.8,58.0,30.08,SSE,163,4.0,11.0,80,0.00,,,0.03,weatherlink.com 1.10,2013-01-11 04:33:00,
2013-01-10 23:49:00,63.9,58.0,30.10,East,96,0.0,8.0,81,0.00,,,0.03,weatherlink.com 1.10,2013-01-11 04:49:00,